Temperature
29 30 30 30 30 30 29 30 30 30 31 31 31 30 28 27 25 24 23 22 21 21 20 20 19 19 19 19 18 18 18 17 17 17 17 17 17 16 16 16 16 16 16 16
28 29 29 29 30 30 29 30 30 30 31 31 30 29 27 26 25 24 23 22 21 21 20 19 19 19 18 18 18 18 17 17 17 17 16 16 16 16 16 16 16 15 15 15
28 29 28 28 29 30 29 30 30 30 31 31 30 28 27 26 25 24 23 22 21 21 20 19 19 19 18 18 18 17 17 17 16 16 16 16 16 16 16 15 15 15 15 15
27 27 26 29 30 30 30 30 30 30 30 30 29 27 26 25 25 24 23 22 21 21 20 19 19 18 18 18 17 17 17 16 16 16 16 16 16 15 15 15 15 15 15 15
27 27 27 29 28 29 29 29 30 30 29 28 27 26 26 24 24 23 22 22 21 20 20 19 19 18 18 17 17 17 17 16 16 16 16 15 15 15 15 15 15 15 15 14
25 26 26 28 29 28 28 28 29 29 28 27 26 29 28 23 22 22 21 20 20 19 19 19 18 18 17 17 17 17 16 16 16 15 15 15 15 15 15 15 14 14 14 14
25 25 27 28 27 27 27 27 26 26 26 26 26 26 23 22 21 20 20 19 19 19 18 18 18 17 17 17 17 16 16 16 16 15 15 15 15 15 14 14 14 14 14 13
25 25 26 26 26 27 25 23 24 24 24 24 23 21 21 20 19 19 19 19 19 18 18 18 18 17 17 17 17 16 16 16 15 15 15 15 14 14 14 14 13 13 13 13
25 25 23 22 23 22 21 22 22 23 22 22 21 20 20 19 18 18 18 18 17 18 17 17 17 17 16 16 16 16 16 15 15 15 14 14 14 14 13 13 13 12 12 12
22 23 22 21 21 20 20 21 21 21 21 21 20 19 19 18 17 17 17 17 17 17 17 16 16 16 16 16 16 15 15 15 14 14 14 13 13 13 13 12 12 12 12 12
21 22 21 21 20 19 19 19 20 20 20 20 19 18 18 17 17 16 16 16 16 16 16 16 16 15 16 16 15 15 14 14 14 13 13 13 12 12 12 12 12 12 12 11
21 20 20 20 18 18 18 18 18 18 18 18 18 17 17 16 16 16 15 15 15 16 16 15 15 15 15 15 15 14 14 13 13 13 12 12 12 12 11 11 11 11 11 11
18 17 17 17 17 17 17 17 17 17 17 17 16 16 16 16 15 15 15 15 15 15 15 15 15 15 14 14 14 14 13 13 12 12 12 12 11 11 11 10 10 10 10 10
16 16 17 17 17 16 16 16 16 16 16 16 16 15 15 15 15 15 15 14 14 14 14 14 14 14 14 13 13 13 12 12 12 12 11 11 11 11 10 10 10 9 9 9
16 16 16 16 16 16 16 16 16 16 15 15 15 15 14 14 14 14 14 14 13 13 13 13 13 13 13 13 12 12 12 12 11 11 11 11 10 10 10 9 9 9 8 8
15 15 15 15 15 15 15 15 16 15 15 15 14 14 14 14 14 13 13 13 12 12 12 12 12 12 12 12 12 11 11 11 11 11 10 10 10 9 9 9 9 8 8 8
15 15 15 15 15 15 15 15 15 15 14 14 14 14 13 13 13 12 12 12 12 12 12 12 11 11 11 11 11 11 11 11 10 10 10 10 10 9 9 9 8 8 8 7
14 14 14 14 14 14 14 14 14 14 14 13 13 13 13 12 12 12 12 12 11 11 11 11 11 11 11 11 11 10 10 10 10 10 10 9 9 9 9 8 8 8 7 7
13 13 13 13 13 13 14 13 13 13 13 13 13 12 12 12 11 11 11 11 11 11 11 11 11 10 11 11 10 10 10 10 9 9 9 9 9 8 8 8 8 8 7 7
13 13 13 13 13 13 13 13 13 12 12 12 12 12 11 11 11 11 11 10 10 10 10 10 10 10 10 10 10 10 10 9 9 9 9 8 8 8 8 8 8 7 7 7
12 12 12 12 12 12 12 12 12 12 12 12 12 11 11 11 10 10 10 10 10 10 10 10 9 9 9 10 9 9 9 9 9 9 8 8 8 8 8 8 7 7 7 7
11 11 11 11 12 12 11 11 11 11 11 11 11 11 11 10 10 10 10 10 10 10 9 9 9 9 9 9 9 9 9 9 9 8 8 8 8 8 8 7 7 7 7 7
10 10 11 11 11 11 11 11 11 11 10 10 10 10 10 10 10 10 9 9 9 9 9 9 9 9 9 9 9 9 9 8 8 8 8 8 8 8 8 8 8 7 7 7
10 10 10 10 10 10 10 10 10 10 10 10 10 10 10 10 10 10 9 9 9 9 9 9 9 9 9 8 9 9 9 8 8 8 8 8 8 8 8 8 8 8 7 7
9 9 10 10 10 10 10 10 10 10 10 9 9 9 10 10 10 9 9 9 9 9 9 9 9 9 8 8 8 8 8 8 8 8 8 8 8 8 8 8 8 8 7 7
9 9 9 10 10 9 9 10 10 10 10 9 9 9 9 9 9 9 9 9 8 8 8 8 8 8 8 8 8 8 8 8 8 8 8 8 8 8 8 8 8 8 8 7
9 9 9 9 9 9 10 10 10 10 9 9 9 9 9 9 9 9 8 8 8 8 8 8 8 8 8 8 8 8 8 8 8 8 8 8 8 8 8 8 8 8 8 7
Wind_Speed
13 8 8 12 15 17 17 16 13 11 11 8 6 6 7 9 11 12 13 13 12 11 10 9 9 8 8 7 7 7 6 6 5 4 4 4 3 3 3 2 2 2 2 2
13 13 12 13 13 14 16 15 15 12 10 5 3 4 7 10 12 13 14 14 13 12 11 11 10 9 8 8 7 7 7 6 5 5 5 4 4 4 4 3 2 3 2 2
13 12 12 16 17 16 15 14 14 14 10 5 4 5 7 9 12 13 14 14 14 13 12 11 10 9 9 8 8 7 7 6 6 6 5 5 5 5 4 3 3 3 3 3
11 10 15 11 8 13 15 15 13 11 7 5 4 3 4 7 10 12 13 13 13 12 12 11 11 10 9 9 8 8 7 6 6 6 6 5 5 5 4 4 4 4 4 4
11 15 15 9 6 8 12 13 12 12 9 5 3 3 4 5 8 10 11 12 12 12 12 12 11 11 10 10 9 8 7 6 6 6 6 6 5 5 4 4 4 4 4 5
11 14 15 10 6 5 7 11 6 8 8 6 6 7 3 5 7 9 10 11 12 12 12 11 11 11 11 10 9 8 7 7 6 6 6 6 5 5 4 5 5 5 5 5
16 15 12 2 4 6 11 5 0 3 5 6 5 2 4 6 8 10 11 12 12 12 11 10 10 10 10 9 8 7 7 7 6 6 6 6 6 5 5 5 6 6 6 6
16 18 14 3 4 5 2 4 3 1 1 3 3 4 6 8 9 11 12 12 13 12 10 10 10 10 9 8 7 6 6 7 7 6 6 6 6 6 6 6 7 6 6 6
10 8 1 1 1 3 4 3 3 2 1 3 4 5 8 9 10 10 11 11 11 11 10 9 8 8 9 7 7 7 7 7 6 6 6 6 6 6 6 5 5 5 5 6
5 4 1 1 1 3 3 4 3 2 1 4 5 7 8 9 9 10 10 10 10 11 10 8 7 6 7 7 7 7 8 7 6 6 7 6 4 4 4 4 5 5 5 6
7 5 3 2 2 3 4 3 2 1 1 4 6 8 8 8 9 9 8 8 9 9 9 8 7 6 6 6 7 7 7 7 7 7 7 6 5 4 3 3 2 3 4 5
6 1 3 2 3 4 3 2 2 2 3 4 6 8 8 8 8 8 8 8 8 9 9 8 7 7 6 6 7 7 7 7 6 6 6 6 7 7 11 8 10 9 7 5
5 5 5 5 4 3 2 1 2 3 4 5 5 6 7 7 7 7 8 7 8 8 8 8 7 6 6 6 6 7 7 6 6 6 7 7 7 7 6 7 11 11 9 9
4 5 5 4 2 1 1 2 3 5 5 5 6 6 7 7 7 8 7 7 7 7 7 7 7 6 5 5 6 6 7 7 6 6 6 6 6 6 6 7 6 5 7 9
5 5 5 3 2 2 2 3 4 4 5 5 5 6 7 7 7 7 7 7 7 8 7 7 7 6 5 5 6 6 6 6 6 6 6 6 6 6 6 7 7 7 7 7
6 5 5 4 4 4 5 5 5 5 5 5 5 5 6 7 7 7 7 7 8 8 7 7 6 6 5 6 7 6 6 7 6 6 7 7 6 7 7 7 7 7 7 8
7 7 6 6 5 5 5 5 4 5 5 6 6 6 7 7 7 7 7 7 7 7 7 7 6 6 6 6 6 6 6 7 7 6 6 6 6 6 6 7 7 7 7 7
9 9 8 7 7 6 4 4 4 5 6 6 6 7 7 8 8 8 8 8 8 8 7 6 7 7 7 7 6 6 6 6 6 6 6 6 6 6 6 6 7 7 7 7
7 7 7 7 7 6 5 5 5 5 5 6 7 7 7 7 8 8 9 8 8 8 6 7 7 7 8 7 6 6 6 7 6 6 6 7 6 6 6 6 7 7 7 7
5 5 5 5 5 6 6 5 5 5 5 7 7 7 7 7 8 9 9 8 5 5 7 7 8 7 8 7 5 6 7 7 7 7 6 6 6 6 6 6 7 7 7 7
4 3 4 4 5 5 5 6 6 7 7 7 8 8 8 8 8 8 8 7 6 7 8 8 7 7 7 7 6 6 6 6 6 6 6 6 6 6 6 6 6 6 7 7
2 3 3 4 5 5 5 6 7 7 8 8 8 9 9 9 9 8 7 6 7 7 7 7 6 7 6 6 6 6 6 6 5 5 5 5 6 6 6 6 6 6 6 6
2 3 4 5 6 6 6 7 8 8 8 9 9 9 9 7 7 7 7 6 7 7 6 6 8 7 4 5 5 6 6 6 5 5 5 5 5 5 5 6 6 6 6 6
4 4 5 6 7 8 8 8 8 8 9 8 8 8 8 7 6 5 6 8 7 7 6 8 9 6 5 4 5 5 5 4 4 4 5 4 4 4 5 5 5 6 6 7
5 6 7 8 8 8 9 10 10 10 9 8 8 8 7 6 6 7 8 9 9 7 7 8 8 5 4 4 4 4 4 4 3 3 4 4 4 4 5 5 5 5 6 6
7 6 6 7 7 7 7 7 8 8 9 9 8 7 7 7 8 7 7 8 9 6 6 6 7 6 4 4 4 3 4 4 4 4 3 4 4 4 4 5 6 6 6 6
8 8 7 8 8 7 7 7 8 8 8 8 8 7 7 7 7 7 7 7 7 6 5 5 5 4 3 3 3 3 2 2 3 3 3 4 4 4 4 5 5 5 5 6
Wind_Direction
246 243 221 217 214 212 221 237 246 242 246 253 244 228 208 190 180 177 174 173 171 166 162 161 158 158 154 150 151 152 155 156 153 152 151 152 153 157 160 173 183 179 176 178
232 233 231 234 228 218 222 232 242 250 254 259 249 216 201 193 186 183 180 176 172 168 165 165 163 161 157 154 153 155 157 155 154 155 153 152 150 146 145 146 142 136 134 137
229 220 224 232 229 225 223 228 233 239 245 245 232 217 208 198 193 188 181 175 171 167 166 164 164 161 160 157 155 156 156 156 158 157 151 146 146 143 141 137 127 121 114 110
233 212 229 233 221 226 229 230 231 241 252 245 248 225 211 202 196 186 178 172 168 164 160 159 157 156 153 153 154 154 154 156 158 156 150 149 149 143 139 137 127 116 106 101
229 226 230 221 204 216 222 228 228 234 240 231 190 196 200 189 187 180 172 165 160 159 156 154 155 154 153 156 156 155 156 158 160 157 150 150 148 143 139 133 121 113 106 105
228 236 234 221 182 204 223 227 224 229 229 216 198 234 187 139 158 158 156 152 149 149 148 149 152 156 158 160 159 160 159 159 158 155 153 150 145 140 133 128 121 112 99 96
227 232 238 198 142 187 218 226 16 227 221 207 212 290 104 134 140 143 142 141 142 142 142 145 150 155 156 156 157 156 157 154 152 152 148 144 140 137 135 130 121 116 109 102
225 232 229 132 185 218 310 15 17 348 201 185 149 111 128 136 136 138 138 139 141 139 137 140 148 153 151 153 152 152 152 149 147 147 144 140 138 136 134 134 133 129 122 115
228 231 59 53 304 351 336 328 341 342 20 157 152 139 136 137 137 138 138 138 139 137 135 137 146 153 151 146 147 149 147 144 142 139 133 136 143 143 145 147 146 142 140 134
247 233 265 307 354 342 328 317 319 314 209 173 158 145 138 135 135 136 136 138 139 138 136 136 142 143 139 140 147 150 148 144 144 140 135 131 131 141 149 153 156 152 151 144
241 247 243 197 8 353 345 347 358 42 146 149 144 141 137 136 136 135 134 135 138 136 135 137 137 134 134 141 149 150 147 147 149 143 134 123 108 82 100 81 113 156 155 149
250 288 291 307 358 348 349 13 53 83 103 120 134 138 137 135 133 134 133 133 133 133 134 134 136 133 134 143 150 150 151 154 151 144 137 133 126 102 57 63 63 63 68 100
283 306 305 298 310 324 354 48 85 103 115 119 123 131 134 131 130 128 127 129 132 133 135 136 135 131 138 145 149 153 153 152 149 145 144 145 144 138 124 86 68 64 72 86
279 282 270 267 282 311 71 100 105 109 114 120 125 131 132 131 130 131 131 131 131 132 133 133 128 124 129 140 149 153 153 144 147 147 146 144 145 143 140 137 128 105 85 96
281 275 270 270 254 224 182 164 146 132 127 129 133 139 141 139 137 136 135 135 135 133 130 129 127 125 130 139 144 147 146 144 140 139 141 141 140 139 137 136 132 129 126 117
290 278 257 242 236 226 208 195 178 160 152 152 150 149 143 138 138 137 138 143 141 135 133 132 128 126 132 137 138 136 131 126 136 140 144 144 144 146 145 143 139 140 145 146
273 268 255 243 238 235 224 213 194 174 165 162 157 150 144 140 139 138 137 135 132 129 129 128 126 128 132 136 137 133 130 132 139 141 143 146 148 148 145 145 148 151 153 153
264 266 264 257 248 238 230 216 193 175 168 161 154 149 150 153 152 146 141 135 129 123 121 122 125 130 132 135 135 133 135 140 145 139 136 137 139 142 144 148 153 152 149 153
255 255 251 245 239 229 214 204 189 170 159 157 156 156 154 152 148 145 142 137 135 131 126 120 126 132 130 131 134 135 134 137 136 133 132 136 142 146 148 153 155 156 157 160
249 243 236 228 217 206 195 184 175 163 161 158 151 149 146 145 146 145 141 134 129 128 134 135 138 134 133 137 145 137 138 138 137 139 143 148 148 150 154 158 160 161 164 168
239 221 209 198 187 180 176 171 165 160 158 156 151 150 146 143 143 143 140 130 119 125 133 140 139 135 136 144 164 141 139 139 142 146 148 151 155 159 161 162 165 170 172 175
221 189 175 172 169 163 157 153 151 152 152 148 146 145 142 142 140 136 131 126 131 138 141 138 131 119 132 158 146 135 136 138 138 139 145 154 158 161 165 169 175 178 179 181
181 164 154 159 157 149 143 145 145 145 144 142 142 142 139 137 139 138 134 130 138 148 141 128 121 129 160 163 140 138 137 140 145 151 155 159 162 168 175 178 181 182 185 189
150 144 141 139 138 139 137 133 128 131 133 131 132 134 134 133 131 124 119 125 131 142 130 121 133 150 189 151 138 137 140 145 151 156 162 169 175 181 185 187 189 189 193 199
126 128 129 132 131 128 125 127 127 128 125 121 122 124 125 122 122 119 122 129 133 140 128 134 148 168 176 143 141 143 151 154 163 172 175 183 192 191 195 201 204 205 206 208
113 114 113 115 114 118 123 125 126 125 123 120 118 117 113 110 114 120 123 130 131 130 130 140 152 174 162 150 153 160 162 160 176 196 200 206 207 207 208 211 215 219 219 219
104 103 102 102 103 108 111 113 114 115 117 117 114 112 112 115 118 120 124 129 135 139 138 143 151 159 158 156 156 160 166 173 188 200 205 212 218 217 219 223 231 234 234 231
Height
1477 1473 1475 1478 1481 1484 1488 1485 1488 1485 1483 1480 1480 1484 1488 1492 1496 1500 1503 1506 1509 1512 1515 1517 1519 1521 1523 1524 1525 1527 1528 1529 1530 1530 1531 1532 1532 1533 1534 1534 1535 1535 1536 1536
1482 1476 1477 1480 1477 1479 1481 1481 1481 1480 1480 1475 1479 1483 1487 1490 1494 1497 1500 1504 1507 1510 1513 1515 1517 1520 1521 1523 1524 1526 1527 1528 1529 1530 1530 1531 1532 1532 1533 1533 1533 1534 1534 1535
1481 1475 1479 1484 1475 1475 1477 1476 1477 1479 1476 1475 1478 1482 1485 1488 1490 1494 1497 1501 1505 1508 1510 1513 1516 1518 1520 1522 1523 1525 1526 1527 1528 1529 1530 1531 1531 1532 1532 1532 1533 1533 1533 1533
1478 1483 1494 1472 1463 1466 1469 1470 1471 1472 1473 1476 1479 1482 1484 1486 1488 1491 1495 1499 1502 1506 1509 1512 1514 1516 1519 1521 1522 1524 1525 1527 1528 1528 1529 1530 1530 1531 1531 1532 1532 1532 1532 1533
1479 1482 1478 1468 1466 1467 1469 1470 1468 1471 1473 1476 1479 1481 1482 1485 1487 1490 1494 1497 1500 1504 1507 1510 1512 1515 1517 1520 1521 1523 1524 1526 1527 1528 1528 1529 1530 1530 1530 1531 1531 1532 1532 1532
1480 1483 1481 1466 1463 1467 1469 1473 1468 1470 1472 1475 1478 1476 1478 1484 1486 1489 1492 1495 1498 1502 1505 1508 1510 1513 1516 1518 1520 1521 1522 1524 1525 1526 1527 1528 1528 1529 1529 1530 1530 1531 1531 1531
1479 1479 1468 1461 1466 1469 1477 1472 1470 1471 1472 1475 1476 1477 1481 1483 1485 1488 1491 1494 1497 1500 1503 1506 1508 1511 1514 1516 1518 1519 1520 1522 1523 1524 1525 1526 1527 1527 1528 1529 1530 1530 1530 1531
1474 1476 1472 1466 1467 1468 1470 1473 1472 1472 1474 1476 1478 1479 1481 1483 1485 1487 1490 1493 1496 1499 1501 1504 1507 1509 1511 1513 1515 1517 1518 1519 1521 1522 1524 1524 1525 1526 1527 1528 1528 1529 1530 1530
1464 1466 1469 1470 1471 1473 1474 1474 1474 1474 1475 1477 1478 1479 1481 1483 1485 1488 1490 1492 1495 1498 1500 1503 1505 1508 1509 1511 1513 1515 1516 1518 1519 1520 1521 1522 1524 1524 1525 1526 1528 1528 1529 1530
1468 1466 1470 1471 1472 1473 1474 1474 1474 1475 1476 1477 1478 1480 1481 1483 1485 1488 1490 1492 1494 1497 1499 1501 1504 1506 1507 1509 1511 1513 1514 1516 1517 1518 1519 1521 1522 1523 1524 1525 1526 1527 1528 1529
1469 1469 1471 1472 1473 1474 1474 1474 1474 1475 1476 1477 1478 1480 1482 1483 1485 1487 1489 1491 1493 1495 1497 1500 1502 1504 1505 1507 1508 1511 1512 1514 1515 1516 1518 1519 1520 1521 1523 1524 1525 1526 1527 1527
1468 1471 1472 1473 1474 1474 1474 1474 1474 1475 1476 1478 1479 1480 1482 1483 1485 1488 1489 1491 1493 1494 1496 1498 1500 1502 1503 1505 1507 1509 1511 1512 1513 1515 1516 1517 1518 1519 1520 1522 1523 1524 1525 1526
1473 1473 1474 1474 1474 1474 1474 1474 1475 1475 1476 1478 1479 1481 1482 1483 1485 1487 1489 1491 1492 1494 1495 1497 1498 1500 1501 1503 1504 1506 1508 1510 1511 1513 1514 1515 1517 1518 1519 1520 1521 1523 1524 1525
1473 1473 1472 1473 1473 1474 1474 1474 1474 1475 1476 1478 1479 1481 1482 1483 1485 1486 1488 1490 1492 1493 1494 1495 1497 1498 1500 1501 1503 1505 1507 1508 1509 1510 1512 1514 1515 1517 1518 1519 1520 1521 1523 1524
1472 1472 1471 1471 1472 1472 1473 1473 1474 1475 1476 1477 1479 1480 1482 1483 1484 1486 1487 1489 1491 1492 1493 1495 1496 1497 1498 1500 1501 1503 1505 1506 1507 1509 1511 1512 1514 1516 1517 1518 1520 1521 1522 1524
1470 1469 1470 1470 1471 1471 1472 1473 1473 1474 1475 1477 1478 1480 1481 1483 1484 1485 1486 1488 1489 1490 1492 1493 1495 1496 1497 1499 1500 1502 1503 1505 1506 1508 1510 1511 1513 1514 1516 1518 1519 1520 1522 1523
1468 1467 1468 1468 1469 1470 1471 1472 1472 1473 1475 1476 1478 1479 1480 1482 1483 1484 1486 1487 1488 1490 1491 1493 1494 1495 1497 1498 1500 1501 1502 1504 1506 1508 1509 1510 1512 1514 1515 1517 1519 1520 1522 1523
1465 1465 1466 1466 1467 1468 1469 1470 1471 1472 1474 1475 1476 1478 1479 1481 1482 1483 1485 1486 1488 1489 1491 1492 1493 1495 1496 1498 1499 1501 1502 1504 1505 1507 1508 1510 1511 1513 1515 1517 1518 1520 1522 1523
1461 1461 1462 1463 1464 1465 1466 1468 1470 1471 1472 1473 1475 1476 1478 1480 1481 1483 1484 1485 1487 1488 1490 1491 1493 1495 1496 1497 1499 1500 1502 1504 1505 1506 1507 1509 1511 1513 1515 1516 1518 1520 1522 1523
1457 1458 1458 1459 1461 1462 1464 1466 1467 1469 1471 1472 1473 1475 1477 1479 1481 1482 1483 1485 1487 1488 1490 1491 1493 1494 1496 1497 1499 1501 1502 1504 1505 1506 1507 1509 1511 1512 1514 1516 1518 1519 1521 1523
1454 1454 1455 1456 1458 1460 1462 1464 1465 1467 1469 1470 1472 1474 1476 1478 1480 1481 1483 1485 1487 1488 1490 1491 1493 1495 1496 1498 1500 1501 1502 1504 1505 1506 1508 1509 1511 1513 1514 1516 1517 1519 1521 1522
1452 1452 1453 1455 1457 1459 1461 1462 1464 1466 1468 1469 1472 1474 1476 1478 1480 1482 1484 1485 1487 1488 1490 1492 1494 1495 1497 1499 1501 1502 1503 1504 1505 1507 1508 1510 1511 1513 1514 1515 1517 1518 1520 1521
1450 1451 1452 1454 1456 1458 1460 1462 1464 1466 1467 1469 1472 1474 1476 1478 1480 1482 1484 1486 1487 1489 1491 1493 1494 1496 1498 1500 1501 1502 1503 1505 1506 1507 1508 1510 1511 1512 1514 1515 1516 1517 1518 1519
1449 1451 1452 1454 1455 1457 1459 1462 1464 1466 1468 1471 1473 1475 1477 1479 1482 1484 1485 1486 1488 1490 1492 1493 1495 1497 1499 1501 1502 1503 1504 1505 1506 1507 1509 1510 1511 1512 1513 1514 1515 1516 1516 1517
1450 1451 1453 1455 1456 1458 1460 1463 1465 1467 1470 1472 1475 1477 1479 1481 1483 1484 1486 1487 1489 1491 1493 1495 1496 1498 1499 1501 1502 1503 1504 1505 1506 1507 1508 1509 1510 1511 1512 1513 1513 1514 1515 1515
1451 1453 1455 1456 1458 1460 1463 1465 1467 1469 1472 1474 1476 1479 1481 1482 1484 1486 1487 1489 1490 1492 1494 1496 1497 1498 1500 1501 1502 1503 1504 1505 1506 1507 1508 1509 1510 1510 1511 1511 1512 1512 1513 1513
1455 1456 1458 1459 1461 1463 1466 1468 1470 1472 1474 1476 1478 1481 1483 1484 1486 1488 1489 1491 1492 1494 1496 1497 1498 1499 1501 1502 1503 1504 1505 1505 1506 1507 1507 1508 1509 1509 1509 1509 1510 1510 1510 1511